CORVUS BC4

Last updated on Sun Dec 14 2025 00:03:50 GMT+0000 (Coordinated Universal Time)

1 43767U 18099K 25347.11027489 .00007495 00000+0 45770-3 0 9997 2 43767 97.4359 30.4870 0006992 286.9154 73.1309 15.10555033384296
UTC large
Height (km)
Speed (km/s)
/
Latitude / Longitude
Inclination (degrees)
Orbital Period (minutes)
Azimuth
Elevation
Range (km)
Doppler Factor

Next 0 passes for location: London (51.5072 / 0.1276)

Sorry there are no passes over London.